Flag for USA

Past Weather in Gonzales, Louisiana, USA — Yesterday and Last 2 Weeks

Now
71 °F

Light rain. Clear.


Feels Like: 71 °F
Forecast: 76 / 70 °F
Wind: N/A

Location: Baton Rouge Metropolitan - Ryan Field
Current Time: Sep 19, 2020 at 2:10:42 am
Latest Report: Sep 19, 2020 at 12:53 am
Visibility: 10 mi
Pressure29.98 "Hg
Humidity: 81%
Dew Point: 65 °F
Location of GonzalesLocation

Past Weather in Gonzales — Graph

°F

Gonzales Temperature Yesterday

Maximum temperature yesterday: 81 °F (at 11:53 am)
Minimum temperature yesterday: 71 °F (at 10:53 pm)
Average temperature yesterday: 75 °F

High & Low Weather Summary for the Past Weeks

 TemperatureHumidityPressure
High96 °F (Sep 4, 3:53 pm)97% (Sep 4, 5:53 am)30.19 "Hg (Sep 4, 5:53 am)
Low68 °F (Sep 7, 6:53 am)35% (Sep 6, 2:53 pm)29.78 "Hg (Sep 16, 3:53 am)
Average81 °F74%29.95 "Hg
* Reported Sep 4 12:53 am — Sep 19 12:53 am, Gonzales. Weather by CustomWeather, © 2020

Note: Actual official high and low records may vary slightly from our data, if they occured in-between our weather recording intervals... More about our weather records

Gonzales Weather History for the Previous 24 Hours

Scroll right to see more
 ConditionsComfort  
Time TempWeatherWind HumidityBarometerVisibility
12:53 am
Sat, Sep 19
71 °FLight rain. Clear.N/A81%29.98 "Hg10 mi
11:53 pm
Fri, Sep 18
71 °FClear.3 mph81%29.98 "Hg10 mi
10:53 pm71 °FLight rain. Passing clouds.3 mph81%29.98 "Hg10 mi
9:53 pm72 °FClear.5 mph76%29.98 "Hg10 mi
8:53 pm72 °FPassing clouds.6 mph76%29.98 "Hg10 mi
7:53 pm73 °FPassing clouds.6 mph74%29.98 "Hg10 mi
6:53 pm74 °FPassing clouds.7 mph69%29.97 "Hg10 mi
5:53 pm75 °FPartly sunny.8 mph69%29.96 "Hg10 mi
4:53 pm76 °FScattered clouds.9 mph69%29.94 "Hg10 mi
3:53 pm77 °FBroken clouds.9 mph66%29.95 "Hg10 mi
2:53 pm78 °FPartly sunny.7 mph69%29.95 "Hg10 mi
1:53 pm81 °FPassing clouds.7 mph58%29.96 "Hg10 mi
12:53 pm81 °FSunny.8 mph60%29.97 "Hg10 mi
11:53 am81 °FSunny.8 mph60%29.98 "Hg10 mi
10:53 am79 °FSunny.7 mph62%29.99 "Hg10 mi
9:53 am77 °FSunny.10 mph66%29.98 "Hg10 mi
8:53 am74 °FSunny.8 mph74%29.95 "Hg10 mi
7:53 am73 °FSunny.7 mph76%29.93 "Hg10 mi
6:53 am72 °FSunny.6 mph78%29.92 "Hg10 mi
5:53 am73 °FClear.7 mph76%29.92 "Hg10 mi
4:53 am74 °FClear.6 mph76%29.91 "Hg10 mi
3:53 am74 °FClear.5 mph79%29.90 "Hg10 mi
2:53 am76 °FClear.6 mph77%29.90 "Hg10 mi
Weather by CustomWeather, © 2020

See weather overview